M I D A S
Marine Information and Data Acquisition System
Tripno 1263 of the Zeeleeuw from 2007-04-13 07:27:27 to 2007-04-13 15:20:58
Back to CruiseResearch ActivitiesStationsMapUnderway DataData graphs

EquipmentUnitsComments
TimeDGPSUTC
LatitudeDGPSDM.mWGS84
LongitudeDGPSDM.mWGS84
SpeedMeteo Stationm/sRelative wind speed
DirectionMeteo StationdegRelative wind direction
TemperatureMeteo Stationdeg CelciusAir temperature
PressureMeteo StationPaAtmospheric pressure
HumidityMeteo Station%Relative humidity
Missing or incorrect values are displayed as -999
Metereological data collected by the RV Zeeleeuw from 2007-04-13 07:29:40 to 2007-04-13 15:22:38
Time Latitude Longitude Speed Direction Temperature Pressure Humidity
2007-04-13 07:30 51°13.615 2°56.036 -999 -999 -999 -999 -999
2007-04-13 07:31 51°13.639 2°55.946 -999 -999 -999 -999 -999
2007-04-13 07:32 51°13.672 2°55.854 -999 -999 -999 -999 -999
2007-04-13 07:33 51°13.698 2°55.778 -999 -999 -999 -999 -999
2007-04-13 07:34 51°13.71 2°55.733 -999 -999 -999 -999 -999
2007-04-13 07:35 51°13.713 2°55.74 -999 -999 -999 -999 -999
2007-04-13 07:36 51°13.718 2°55.732 -999 -999 -999 -999 -999
2007-04-13 07:37 51°13.761 2°55.704 -999 -999 -999 -999 -999
2007-04-13 07:38 51°13.867 2°55.61 -999 -999 -999 -999 -999
2007-04-13 07:39 51°13.995 2°55.514 -999 -999 -999 -999 -999
2007-04-13 07:40 51°14.124 2°55.416 -999 -999 -999 -999 -999
2007-04-13 07:41 51°14.246 2°55.283 -999 -999 -999 -999 -999
2007-04-13 07:42 51°14.38 2°55.053 -999 -999 -999 -999 -999
2007-04-13 07:43 51°14.559 2°54.856 -999 -999 -999 -999 -999
2007-04-13 07:44 51°14.74 2°54.656 -999 -999 -999 -999 -999
2007-04-13 07:45 51°14.934 2°54.485 -999 -999 -999 -999 -999
2007-04-13 07:46 51°15.125 2°54.315 -999 -999 -999 -999 -999
2007-04-13 07:47 51°15.321 2°54.153 -999 -999 -999 -999 -999
2007-04-13 07:48 51°15.519 2°54 -999 -999 -999 -999 -999
2007-04-13 07:49 51°15.716 2°53.848 -999 -999 -999 -999 -999
2007-04-13 07:50 51°15.916 2°53.698 -999 -999 -999 -999 -999
2007-04-13 07:51 51°16.117 2°53.55 -999 -999 -999 -999 -999
2007-04-13 07:52 51°16.316 2°53.399 -999 -999 -999 -999 -999
2007-04-13 07:53 51°16.511 2°53.241 -999 -999 -999 -999 -999
2007-04-13 07:54 51°16.704 2°53.075 -999 -999 -999 -999 -999
2007-04-13 07:55 51°16.896 2°52.91 -999 -999 -999 -999 -999
2007-04-13 07:56 51°17.091 2°52.742 -999 -999 -999 -999 -999
2007-04-13 07:57 51°17.294 2°52.602 -999 -999 -999 -999 -999
2007-04-13 07:58 51°17.52 2°52.566 -999 -999 -999 -999 -999
2007-04-13 07:59 51°17.751 2°52.542 -999 -999 -999 -999 -999
2007-04-13 08:00 51°17.979 2°52.535 -999 -999 -999 -999 -999
2007-04-13 08:01 51°18.206 2°52.589 -999 -999 -999 -999 -999
2007-04-13 08:02 51°18.407 2°52.751 -999 -999 -999 -999 -999
2007-04-13 08:03 51°18.565 2°53.024 -999 -999 -999 -999 -999
2007-04-13 08:04 51°18.73 2°53.288 -999 -999 -999 -999 -999
2007-04-13 08:05 51°18.897 2°53.55 -999 -999 -999 -999 -999
2007-04-13 08:06 51°19.062 2°53.813 -999 -999 -999 -999 -999
2007-04-13 08:07 51°19.225 2°54.081 -999 -999 -999 -999 -999
2007-04-13 08:08 51°19.386 2°54.352 -999 -999 -999 -999 -999
2007-04-13 08:09 51°19.548 2°54.621 -999 -999 -999 -999 -999
2007-04-13 08:10 51°19.711 2°54.893 -999 -999 -999 -999 -999
2007-04-13 08:11 51°19.865 2°55.175 -999 -999 -999 -999 -999
2007-04-13 08:12 51°20.019 2°55.456 -999 -999 -999 -999 -999
2007-04-13 08:13 51°20.175 2°55.739 -999 -999 -999 -999 -999
2007-04-13 08:14 51°20.33 2°56.02 -999 -999 -999 -999 -999
2007-04-13 08:15 51°20.488 2°56.302 -999 -999 -999 -999 -999
2007-04-13 08:16 51°20.644 2°56.584 -999 -999 -999 -999 -999
2007-04-13 08:17 51°20.795 2°56.875 -999 -999 -999 -999 -999
2007-04-13 08:18 51°20.935 2°57.176 -999 -999 -999 -999 -999
2007-04-13 08:19 51°21.077 2°57.476 -999 -999 -999 -999 -999
2007-04-13 08:20 51°21.221 2°57.773 -999 -999 -999 -999 -999
2007-04-13 08:21 51°21.371 2°58.062 -999 -999 -999 -999 -999
2007-04-13 08:22 51°21.528 2°58.341 -999 -999 -999 -999 -999
2007-04-13 08:23 51°21.685 2°58.621 -999 -999 -999 -999 -999
2007-04-13 08:24 51°21.849 2°58.891 -999 -999 -999 -999 -999
2007-04-13 08:25 51°22.019 2°59.151 -999 -999 -999 -999 -999
2007-04-13 08:26 51°22.189 2°59.411 -999 -999 -999 -999 -999
2007-04-13 08:27 51°22.36 2°59.67 -999 -999 -999 -999 -999
2007-04-13 08:28 51°22.53 2°59.931 -999 -999 -999 -999 -999
2007-04-13 08:29 51°22.7 3°0.192 -999 -999 -999 -999 -999
2007-04-13 08:30 51°22.876 3°0.444 -999 -999 -999 -999 -999
2007-04-13 08:31 51°23.052 3°0.699 -999 -999 -999 -999 -999
2007-04-13 08:32 51°23.25 3°0.895 -999 -999 -999 -999 -999
2007-04-13 08:33 51°23.48 3°0.942 -999 -999 -999 -999 -999
2007-04-13 08:34 51°23.711 3°0.985 -999 -999 -999 -999 -999
2007-04-13 08:35 51°23.943 3°1.035 -999 -999 -999 -999 -999
2007-04-13 08:36 51°24.176 3°1.09 -999 -999 -999 -999 -999
2007-04-13 08:37 51°24.404 3°1.14 -999 -999 -999 -999 -999
2007-04-13 08:38 51°24.627 3°1.19 -999 -999 -999 -999 -999
2007-04-13 08:39 51°24.849 3°1.239 -999 -999 -999 -999 -999
2007-04-13 08:40 51°25.071 3°1.29 -999 -999 -999 -999 -999
2007-04-13 08:41 51°25.293 3°1.342 -999 -999 -999 -999 -999
2007-04-13 08:42 51°25.51 3°1.442 -999 -999 -999 -999 -999
2007-04-13 08:43 51°25.721 3°1.584 -999 -999 -999 -999 -999
2007-04-13 08:44 51°25.93 3°1.722 -999 -999 -999 -999 -999
2007-04-13 08:45 51°26.14 3°1.896 -999 -999 -999 -999 -999
2007-04-13 08:46 51°26.341 3°2.075 -999 -999 -999 -999 -999
2007-04-13 08:47 51°26.541 3°2.272 -999 -999 -999 -999 -999
2007-04-13 08:48 51°26.742 3°2.468 -999 -999 -999 -999 -999
2007-04-13 08:49 51°26.931 3°2.693 -999 -999 -999 -999 -999
2007-04-13 08:50 51°27.121 3°2.927 -999 -999 -999 -999 -999
2007-04-13 08:51 51°27.31 3°3.154 -999 -999 -999 -999 -999
2007-04-13 08:52 51°27.5 3°3.378 -999 -999 -999 -999 -999
2007-04-13 08:53 51°27.689 3°3.601 -999 -999 -999 -999 -999
2007-04-13 08:54 51°27.878 3°3.826 -999 -999 -999 -999 -999
2007-04-13 08:55 51°28.068 3°4.049 -999 -999 -999 -999 -999
2007-04-13 08:56 51°28.258 3°4.272 -999 -999 -999 -999 -999
2007-04-13 08:57 51°28.428 3°4.527 -999 -999 -999 -999 -999
2007-04-13 08:58 51°28.571 3°4.826 -999 -999 -999 -999 -999
2007-04-13 08:59 51°28.725 3°5.113 -999 -999 -999 -999 -999
2007-04-13 09:00 51°28.873 3°5.399 -999 -999 -999 -999 -999
2007-04-13 09:01 51°28.946 3°5.591 -999 -999 -999 -999 -999
2007-04-13 09:02 51°29.007 3°5.71 -999 -999 -999 -999 -999
2007-04-13 09:03 51°29.077 3°5.841 -999 -999 -999 -999 -999
2007-04-13 09:04 51°29.16 3°6.006 -999 -999 -999 -999 -999
2007-04-13 09:05 51°29.248 3°6.179 -999 -999 -999 -999 -999
2007-04-13 09:06 51°29.317 3°6.335 -999 -999 -999 -999 -999
2007-04-13 09:07 51°29.366 3°6.454 -999 -999 -999 -999 -999
2007-04-13 09:08 51°29.405 3°6.542 -999 -999 -999 -999 -999
2007-04-13 09:09 51°29.439 3°6.617 -999 -999 -999 -999 -999
2007-04-13 09:10 51°29.468 3°6.685 -999 -999 -999 -999 -999
2007-04-13 09:11 51°29.493 3°6.751 -999 -999 -999 -999 -999
2007-04-13 09:12 51°29.52 3°6.819 -999 -999 -999 -999 -999
2007-04-13 09:13 51°29.551 3°6.886 -999 -999 -999 -999 -999
2007-04-13 09:14 51°29.586 3°6.951 -999 -999 -999 -999 -999
2007-04-13 09:15 51°29.622 3°7.014 -999 -999 -999 -999 -999
2007-04-13 09:16 51°29.658 3°7.078 -999 -999 -999 -999 -999
2007-04-13 09:17 51°29.693 3°7.145 -999 -999 -999 -999 -999
2007-04-13 09:18 51°29.727 3°7.209 -999 -999 -999 -999 -999
2007-04-13 09:19 51°29.76 3°7.274 -999 -999 -999 -999 -999
2007-04-13 09:20 51°29.793 3°7.337 -999 -999 -999 -999 -999
2007-04-13 09:21 51°29.825 3°7.399 -999 -999 -999 -999 -999
2007-04-13 09:22 51°29.858 3°7.461 -999 -999 -999 -999 -999
2007-04-13 09:23 51°29.893 3°7.522 -999 -999 -999 -999 -999
2007-04-13 09:24 51°29.927 3°7.584 -999 -999 -999 -999 -999
2007-04-13 09:25 51°29.96 3°7.646 -999 -999 -999 -999 -999
2007-04-13 09:26 51°29.995 3°7.706 -999 -999 -999 -999 -999
2007-04-13 09:27 51°30.029 3°7.765 -999 -999 -999 -999 -999
2007-04-13 09:28 51°30.064 3°7.826 -999 -999 -999 -999 -999
2007-04-13 09:29 51°30.097 3°7.888 -999 -999 -999 -999 -999
2007-04-13 09:30 51°30.131 3°7.949 -999 -999 -999 -999 -999
2007-04-13 09:31 51°30.167 3°8.01 -999 -999 -999 -999 -999
2007-04-13 09:32 51°30.202 3°8.071 -999 -999 -999 -999 -999
2007-04-13 09:33 51°30.236 3°8.133 -999 -999 -999 -999 -999
2007-04-13 09:34 51°30.272 3°8.195 -999 -999 -999 -999 -999
2007-04-13 09:35 51°30.308 3°8.255 -999 -999 -999 -999 -999
2007-04-13 09:36 51°30.345 3°8.316 -999 -999 -999 -999 -999
2007-04-13 09:37 51°30.379 3°8.377 -999 -999 -999 -999 -999
2007-04-13 09:38 51°30.413 3°8.439 -999 -999 -999 -999 -999
2007-04-13 09:39 51°30.446 3°8.501 -999 -999 -999 -999 -999
2007-04-13 09:40 51°30.48 3°8.563 -999 -999 -999 -999 -999
2007-04-13 09:41 51°30.514 3°8.624 -999 -999 -999 -999 -999
2007-04-13 09:42 51°30.549 3°8.686 -999 -999 -999 -999 -999
2007-04-13 09:43 51°30.585 3°8.746 -999 -999 -999 -999 -999
2007-04-13 09:44 51°30.621 3°8.808 -999 -999 -999 -999 -999
2007-04-13 09:45 51°30.653 3°8.873 -999 -999 -999 -999 -999
2007-04-13 09:46 51°30.679 3°8.944 -999 -999 -999 -999 -999
2007-04-13 09:47 51°30.699 3°9.02 -999 -999 -999 -999 -999
2007-04-13 09:48 51°30.716 3°9.098 -999 -999 -999 -999 -999
2007-04-13 09:49 51°30.735 3°9.175 -999 -999 -999 -999 -999
2007-04-13 09:50 51°30.762 3°9.241 -999 -999 -999 -999 -999
2007-04-13 09:51 51°30.804 3°9.278 -999 -999 -999 -999 -999
2007-04-13 09:52 51°30.844 3°9.272 -999 -999 -999 -999 -999
2007-04-13 09:53 51°30.863 3°9.232 -999 -999 -999 -999 -999
2007-04-13 09:54 51°30.84 3°9.158 -999 -999 -999 -999 -999
2007-04-13 09:55 51°30.807 3°9.078 -999 -999 -999 -999 -999
2007-04-13 09:56 51°30.777 3°9.021 -999 -999 -999 -999 -999
2007-04-13 09:57 51°30.744 3°8.965 -999 -999 -999 -999 -999
2007-04-13 09:58 51°30.71 3°8.906 -999 -999 -999 -999 -999
2007-04-13 09:59 51°30.675 3°8.846 -999 -999 -999 -999 -999
2007-04-13 10:00 51°30.639 3°8.785 -999 -999 -999 -999 -999
2007-04-13 10:01 51°30.604 3°8.724 -999 -999 -999 -999 -999
2007-04-13 10:02 51°30.57 3°8.661 -999 -999 -999 -999 -999
2007-04-13 10:03 51°30.536 3°8.598 -999 -999 -999 -999 -999
2007-04-13 10:04 51°30.501 3°8.537 -999 -999 -999 -999 -999
2007-04-13 10:05 51°30.468 3°8.474 -999 -999 -999 -999 -999
2007-04-13 10:06 51°30.441 3°8.42 -999 -999 -999 -999 -999
2007-04-13 10:07 51°30.418 3°8.377 -999 -999 -999 -999 -999
2007-04-13 10:08 51°30.395 3°8.341 -999 -999 -999 -999 -999
2007-04-13 10:09 51°30.371 3°8.301 -999 -999 -999 -999 -999
2007-04-13 10:10 51°30.347 3°8.259 -999 -999 -999 -999 -999
2007-04-13 10:11 51°30.323 3°8.212 -999 -999 -999 -999 -999
2007-04-13 10:12 51°30.293 3°8.156 -999 -999 -999 -999 -999
2007-04-13 10:13 51°30.256 3°8.095 -999 -999 -999 -999 -999
2007-04-13 10:14 51°30.221 3°8.037 -999 -999 -999 -999 -999
2007-04-13 10:15 51°30.189 3°7.981 -999 -999 -999 -999 -999
2007-04-13 10:16 51°30.158 3°7.925 -999 -999 -999 -999 -999
2007-04-13 10:17 51°30.127 3°7.87 -999 -999 -999 -999 -999
2007-04-13 10:18 51°30.094 3°7.816 -999 -999 -999 -999 -999
2007-04-13 10:19 51°30.064 3°7.755 -999 -999 -999 -999 -999
2007-04-13 10:20 51°30.033 3°7.695 -999 -999 -999 -999 -999
2007-04-13 10:21 51°29.999 3°7.638 -999 -999 -999 -999 -999
2007-04-13 10:22 51°29.964 3°7.581 -999 -999 -999 -999 -999
2007-04-13 10:23 51°29.93 3°7.525 -999 -999 -999 -999 -999
2007-04-13 10:24 51°29.897 3°7.467 -999 -999 -999 -999 -999
2007-04-13 10:25 51°29.863 3°7.411 -999 -999 -999 -999 -999
2007-04-13 10:26 51°29.829 3°7.354 -999 -999 -999 -999 -999
2007-04-13 10:27 51°29.797 3°7.296 -999 -999 -999 -999 -999
2007-04-13 10:28 51°29.765 3°7.238 -999 -999 -999 -999 -999
2007-04-13 10:29 51°29.733 3°7.18 -999 -999 -999 -999 -999
2007-04-13 10:30 51°29.702 3°7.12 -999 -999 -999 -999 -999
2007-04-13 10:31 51°29.671 3°7.059 -999 -999 -999 -999 -999
2007-04-13 10:32 51°29.649 3°6.989 -999 -999 -999 -999 -999
2007-04-13 10:33 51°29.635 3°6.911 -999 -999 -999 -999 -999
2007-04-13 10:34 51°29.63 3°6.83 -999 -999 -999 -999 -999
2007-04-13 10:35 51°29.645 3°6.726 -999 -999 -999 -999 -999
2007-04-13 10:36 51°29.668 3°6.563 -999 -999 -999 -999 -999
2007-04-13 10:37 51°29.696 3°6.385 -999 -999 -999 -999 -999
2007-04-13 10:38 51°29.778 3°6.275 -999 -999 -999 -999 -999
2007-04-13 10:39 51°29.851 3°6.312 -999 -999 -999 -999 -999
2007-04-13 10:40 51°29.886 3°6.382 -999 -999 -999 -999 -999
2007-04-13 10:41 51°29.915 3°6.445 -999 -999 -999 -999 -999
2007-04-13 10:42 51°29.943 3°6.501 -999 -999 -999 -999 -999
2007-04-13 10:43 51°29.974 3°6.562 -999 -999 -999 -999 -999
2007-04-13 10:44 51°30.016 3°6.633 -999 -999 -999 -999 -999
2007-04-13 10:45 51°30.053 3°6.695 -999 -999 -999 -999 -999
2007-04-13 10:46 51°30.083 3°6.751 -999 -999 -999 -999 -999
2007-04-13 10:47 51°30.108 3°6.804 -999 -999 -999 -999 -999
2007-04-13 10:48 51°30.137 3°6.862 -999 -999 -999 -999 -999
2007-04-13 10:49 51°30.171 3°6.927 -999 -999 -999 -999 -999
2007-04-13 10:50 51°30.21 3°6.995 -999 -999 -999 -999 -999
2007-04-13 10:51 51°30.248 3°7.063 -999 -999 -999 -999 -999
2007-04-13 10:52 51°30.283 3°7.129 -999 -999 -999 -999 -999
2007-04-13 10:53 51°30.316 3°7.193 -999 -999 -999 -999 -999
2007-04-13 10:54 51°30.347 3°7.255 -999 -999 -999 -999 -999
2007-04-13 10:55 51°30.378 3°7.315 -999 -999 -999 -999 -999
2007-04-13 10:56 51°30.408 3°7.375 -999 -999 -999 -999 -999
2007-04-13 10:57 51°30.439 3°7.434 -999 -999 -999 -999 -999
2007-04-13 10:58 51°30.47 3°7.496 -999 -999 -999 -999 -999
2007-04-13 10:59 51°30.503 3°7.559 -999 -999 -999 -999 -999
2007-04-13 11:00 51°30.538 3°7.623 -999 -999 -999 -999 -999
2007-04-13 11:01 51°30.573 3°7.689 -999 -999 -999 -999 -999
2007-04-13 11:02 51°30.607 3°7.756 -999 -999 -999 -999 -999
2007-04-13 11:03 51°30.642 3°7.823 -999 -999 -999 -999 -999
2007-04-13 11:04 51°30.677 3°7.89 -999 -999 -999 -999 -999
2007-04-13 11:05 51°30.711 3°7.955 -999 -999 -999 -999 -999
2007-04-13 11:06 51°30.744 3°8.02 -999 -999 -999 -999 -999
2007-04-13 11:07 51°30.777 3°8.085 -999 -999 -999 -999 -999
2007-04-13 11:08 51°30.809 3°8.15 -999 -999 -999 -999 -999
2007-04-13 11:09 51°30.84 3°8.214 -999 -999 -999 -999 -999
2007-04-13 11:10 51°30.872 3°8.278 -999 -999 -999 -999 -999
2007-04-13 11:11 51°30.902 3°8.344 -999 -999 -999 -999 -999
2007-04-13 11:12 51°30.93 3°8.413 -999 -999 -999 -999 -999
2007-04-13 11:13 51°30.957 3°8.482 -999 -999 -999 -999 -999
2007-04-13 11:14 51°30.985 3°8.55 -999 -999 -999 -999 -999
2007-04-13 11:15 51°31.023 3°8.603 -999 -999 -999 -999 -999
2007-04-13 11:16 51°31.071 3°8.61 -999 -999 -999 -999 -999
2007-04-13 11:17 51°31.096 3°8.555 -999 -999 -999 -999 -999
2007-04-13 11:18 51°31.057 3°8.498 -999 -999 -999 -999 -999
2007-04-13 11:19 51°31.016 3°8.418 -999 -999 -999 -999 -999
2007-04-13 11:20 51°30.983 3°8.353 -999 -999 -999 -999 -999
2007-04-13 11:21 51°30.948 3°8.307 -999 -999 -999 -999 -999
2007-04-13 11:22 51°30.915 3°8.25 -999 -999 -999 -999 -999
2007-04-13 11:23 51°30.885 3°8.187 -999 -999 -999 -999 -999
2007-04-13 11:24 51°30.853 3°8.123 -999 -999 -999 -999 -999
2007-04-13 11:25 51°30.817 3°8.061 -999 -999 -999 -999 -999
2007-04-13 11:26 51°30.782 3°8.001 -999 -999 -999 -999 -999
2007-04-13 11:27 51°30.747 3°7.939 -999 -999 -999 -999 -999
2007-04-13 11:28 51°30.712 3°7.876 -999 -999 -999 -999 -999
2007-04-13 11:29 51°30.677 3°7.811 -999 -999 -999 -999 -999
2007-04-13 11:30 51°30.644 3°7.743 -999 -999 -999 -999 -999
2007-04-13 11:31 51°30.61 3°7.681 -999 -999 -999 -999 -999
2007-04-13 11:32 51°30.579 3°7.618 -999 -999 -999 -999 -999
2007-04-13 11:33 51°30.547 3°7.557 -999 -999 -999 -999 -999
2007-04-13 11:34 51°30.516 3°7.495 -999 -999 -999 -999 -999
2007-04-13 11:35 51°30.484 3°7.434 -999 -999 -999 -999 -999
2007-04-13 11:36 51°30.452 3°7.37 -999 -999 -999 -999 -999
2007-04-13 11:37 51°30.421 3°7.306 -999 -999 -999 -999 -999
2007-04-13 11:38 51°30.389 3°7.242 -999 -999 -999 -999 -999
2007-04-13 11:39 51°30.356 3°7.178 -999 -999 -999 -999 -999
2007-04-13 11:40 51°30.324 3°7.113 -999 -999 -999 -999 -999
2007-04-13 11:41 51°30.291 3°7.049 -999 -999 -999 -999 -999
2007-04-13 11:42 51°30.258 3°6.985 -999 -999 -999 -999 -999
2007-04-13 11:43 51°30.224 3°6.921 -999 -999 -999 -999 -999
2007-04-13 11:44 51°30.191 3°6.857 -999 -999 -999 -999 -999
2007-04-13 11:45 51°30.157 3°6.793 -999 -999 -999 -999 -999
2007-04-13 11:46 51°30.122 3°6.729 -999 -999 -999 -999 -999
2007-04-13 11:47 51°30.088 3°6.664 -999 -999 -999 -999 -999
2007-04-13 11:48 51°30.053 3°6.599 -999 -999 -999 -999 -999
2007-04-13 11:49 51°30.018 3°6.533 -999 -999 -999 -999 -999
2007-04-13 11:50 51°29.984 3°6.466 -999 -999 -999 -999 -999
2007-04-13 11:51 51°29.949 3°6.4 -999 -999 -999 -999 -999
2007-04-13 11:52 51°29.911 3°6.328 -999 -999 -999 -999 -999
2007-04-13 11:53 51°29.915 3°6.189 -999 -999 -999 -999 -999
2007-04-13 11:54 51°30.033 3°6.136 -999 -999 -999 -999 -999
2007-04-13 11:55 51°30.181 3°6.175 -999 -999 -999 -999 -999
2007-04-13 11:56 51°30.333 3°6.228 -999 -999 -999 -999 -999
2007-04-13 11:57 51°30.487 3°6.281 -999 -999 -999 -999 -999
2007-04-13 11:58 51°30.639 3°6.337 -999 -999 -999 -999 -999
2007-04-13 11:59 51°30.696 3°6.451 -999 -999 -999 -999 -999
2007-04-13 12:00 51°30.688 3°6.531 -999 -999 -999 -999 -999
2007-04-13 12:01 51°30.659 3°6.584 -999 -999 -999 -999 -999
2007-04-13 12:02 51°30.624 3°6.654 -999 -999 -999 -999 -999
2007-04-13 12:03 51°30.592 3°6.727 -999 -999 -999 -999 -999
2007-04-13 12:04 51°30.56 3°6.788 -999 -999 -999 -999 -999
2007-04-13 12:05 51°30.526 3°6.838 -999 -999 -999 -999 -999
2007-04-13 12:06 51°30.488 3°6.882 -999 -999 -999 -999 -999
2007-04-13 12:07 51°30.447 3°6.924 -999 -999 -999 -999 -999
2007-04-13 12:08 51°30.407 3°6.971 -999 -999 -999 -999 -999
2007-04-13 12:09 51°30.368 3°7.024 -999 -999 -999 -999 -999
2007-04-13 12:10 51°30.329 3°7.078 -999 -999 -999 -999 -999
2007-04-13 12:11 51°30.289 3°7.129 -999 -999 -999 -999 -999
2007-04-13 12:12 51°30.248 3°7.179 -999 -999 -999 -999 -999
2007-04-13 12:13 51°30.207 3°7.228 -999 -999 -999 -999 -999
2007-04-13 12:14 51°30.165 3°7.276 -999 -999 -999 -999 -999
2007-04-13 12:15 51°30.123 3°7.323 -999 -999 -999 -999 -999
2007-04-13 12:16 51°30.081 3°7.371 -999 -999 -999 -999 -999
2007-04-13 12:17 51°30.039 3°7.418 -999 -999 -999 -999 -999
2007-04-13 12:18 51°29.998 3°7.468 -999 -999 -999 -999 -999
2007-04-13 12:19 51°29.956 3°7.518 -999 -999 -999 -999 -999
2007-04-13 12:20 51°29.915 3°7.568 -999 -999 -999 -999 -999
2007-04-13 12:21 51°29.874 3°7.619 -999 -999 -999 -999 -999
2007-04-13 12:22 51°29.835 3°7.672 -999 -999 -999 -999 -999
2007-04-13 12:23 51°29.808 3°7.738 -999 -999 -999 -999 -999
2007-04-13 12:24 51°29.791 3°7.82 -999 -999 -999 -999 -999
2007-04-13 12:25 51°29.795 3°7.939 -999 -999 -999 -999 -999
2007-04-13 12:26 51°29.836 3°8.058 -999 -999 -999 -999 -999
2007-04-13 12:27 51°29.898 3°8.188 -999 -999 -999 -999 -999
2007-04-13 12:28 51°29.969 3°8.323 -999 -999 -999 -999 -999
2007-04-13 12:29 51°30.041 3°8.462 -999 -999 -999 -999 -999
2007-04-13 12:30 51°30.109 3°8.602 -999 -999 -999 -999 -999
2007-04-13 12:31 51°30.182 3°8.652 -999 -999 -999 -999 -999
2007-04-13 12:32 51°30.231 3°8.617 -999 -999 -999 -999 -999
2007-04-13 12:33 51°30.276 3°8.567 -999 -999 -999 -999 -999
2007-04-13 12:34 51°30.323 3°8.528 -999 -999 -999 -999 -999
2007-04-13 12:35 51°30.369 3°8.493 -999 -999 -999 -999 -999
2007-04-13 12:36 51°30.408 3°8.443 -999 -999 -999 -999 -999
2007-04-13 12:37 51°30.444 3°8.388 -999 -999 -999 -999 -999
2007-04-13 12:38 51°30.482 3°8.337 -999 -999 -999 -999 -999
2007-04-13 12:39 51°30.521 3°8.29 -999 -999 -999 -999 -999
2007-04-13 12:40 51°30.56 3°8.242 -999 -999 -999 -999 -999
2007-04-13 12:41 51°30.599 3°8.193 -999 -999 -999 -999 -999
2007-04-13 12:42 51°30.637 3°8.14 -999 -999 -999 -999 -999
2007-04-13 12:43 51°30.675 3°8.088 -999 -999 -999 -999 -999
2007-04-13 12:44 51°30.713 3°8.035 -999 -999 -999 -999 -999
2007-04-13 12:45 51°30.751 3°7.982 -999 -999 -999 -999 -999
2007-04-13 12:46 51°30.789 3°7.93 -999 -999 -999 -999 -999
2007-04-13 12:47 51°30.827 3°7.878 -999 -999 -999 -999 -999
2007-04-13 12:48 51°30.864 3°7.824 -999 -999 -999 -999 -999
2007-04-13 12:49 51°30.9 3°7.77 -999 -999 -999 -999 -999
2007-04-13 12:50 51°30.936 3°7.716 -999 -999 -999 -999 -999
2007-04-13 12:51 51°30.974 3°7.663 -999 -999 -999 -999 -999
2007-04-13 12:52 51°31.012 3°7.611 -999 -999 -999 -999 -999
2007-04-13 12:53 51°31.049 3°7.525 -999 -999 -999 -999 -999
2007-04-13 12:54 51°31.1 3°7.4 -999 -999 -999 -999 -999
2007-04-13 12:55 51°31.157 3°7.375 -999 -999 -999 -999 -999
2007-04-13 12:56 51°31.196 3°7.423 -999 -999 -999 -999 -999
2007-04-13 12:57 51°31.188 3°7.493 -999 -999 -999 -999 -999
2007-04-13 12:58 51°31.148 3°7.552 -999 -999 -999 -999 -999
2007-04-13 12:59 51°31.099 3°7.616 -999 -999 -999 -999 -999
2007-04-13 13:00 51°31.05 3°7.669 -999 -999 -999 -999 -999
2007-04-13 13:01 51°31.004 3°7.714 -999 -999 -999 -999 -999
2007-04-13 13:02 51°30.967 3°7.767 -999 -999 -999 -999 -999
2007-04-13 13:03 51°30.936 3°7.827 -999 -999 -999 -999 -999
2007-04-13 13:04 51°30.902 3°7.884 -999 -999 -999 -999 -999
2007-04-13 13:05 51°30.863 3°7.935 -999 -999 -999 -999 -999
2007-04-13 13:06 51°30.821 3°7.981 -999 -999 -999 -999 -999
2007-04-13 13:07 51°30.779 3°8.028 -999 -999 -999 -999 -999
2007-04-13 13:08 51°30.739 3°8.077 -999 -999 -999 -999 -999
2007-04-13 13:09 51°30.701 3°8.129 -999 -999 -999 -999 -999
2007-04-13 13:10 51°30.662 3°8.18 -999 -999 -999 -999 -999
2007-04-13 13:11 51°30.622 3°8.229 -999 -999 -999 -999 -999
2007-04-13 13:12 51°30.582 3°8.278 -999 -999 -999 -999 -999
2007-04-13 13:13 51°30.543 3°8.33 -999 -999 -999 -999 -999
2007-04-13 13:14 51°30.508 3°8.386 -999 -999 -999 -999 -999
2007-04-13 13:15 51°30.47 3°8.439 -999 -999 -999 -999 -999
2007-04-13 13:16 51°30.429 3°8.488 -999 -999 -999 -999 -999
2007-04-13 13:17 51°30.388 3°8.535 -999 -999 -999 -999 -999
2007-04-13 13:18 51°30.348 3°8.583 -999 -999 -999 -999 -999
2007-04-13 13:19 51°30.32 3°8.639 -999 -999 -999 -999 -999
2007-04-13 13:20 51°30.316 3°8.718 -999 -999 -999 -999 -999
2007-04-13 13:21 51°30.418 3°8.891 -999 -999 -999 -999 -999
2007-04-13 13:22 51°30.577 3°9.066 -999 -999 -999 -999 -999
2007-04-13 13:23 51°30.686 3°9.135 -999 -999 -999 -999 -999
2007-04-13 13:24 51°30.746 3°9.114 -999 -999 -999 -999 -999
2007-04-13 13:25 51°30.771 3°9.055 -999 -999 -999 -999 -999
2007-04-13 13:26 51°30.76 3°8.986 -999 -999 -999 -999 -999
2007-04-13 13:27 51°30.724 3°8.916 -999 -999 -999 -999 -999
2007-04-13 13:28 51°30.694 3°8.832 -999 -999 -999 -999 -999
2007-04-13 13:29 51°30.667 3°8.755 -999 -999 -999 -999 -999
2007-04-13 13:30 51°30.636 3°8.688 -999 -999 -999 -999 -999
2007-04-13 13:31 51°30.604 3°8.623 -999 -999 -999 -999 -999
2007-04-13 13:32 51°30.572 3°8.56 -999 -999 -999 -999 -999
2007-04-13 13:33 51°30.537 3°8.502 -999 -999 -999 -999 -999
2007-04-13 13:34 51°30.5 3°8.449 -999 -999 -999 -999 -999
2007-04-13 13:35 51°30.463 3°8.394 -999 -999 -999 -999 -999
2007-04-13 13:36 51°30.426 3°8.339 -999 -999 -999 -999 -999
2007-04-13 13:37 51°30.39 3°8.283 -999 -999 -999 -999 -999
2007-04-13 13:38 51°30.356 3°8.222 -999 -999 -999 -999 -999
2007-04-13 13:39 51°30.325 3°8.158 -999 -999 -999 -999 -999
2007-04-13 13:40 51°30.293 3°8.097 -999 -999 -999 -999 -999
2007-04-13 13:41 51°30.259 3°8.039 -999 -999 -999 -999 -999
2007-04-13 13:42 51°30.224 3°7.982 -999 -999 -999 -999 -999
2007-04-13 13:43 51°30.19 3°7.924 -999 -999 -999 -999 -999
2007-04-13 13:44 51°30.155 3°7.866 -999 -999 -999 -999 -999
2007-04-13 13:45 51°30.12 3°7.807 -999 -999 -999 -999 -999
2007-04-13 13:46 51°30.07 3°7.729 -999 -999 -999 -999 -999
2007-04-13 13:47 51°29.943 3°7.547 -999 -999 -999 -999 -999
2007-04-13 13:48 51°29.796 3°7.275 -999 -999 -999 -999 -999
2007-04-13 13:49 51°29.652 3°6.996 -999 -999 -999 -999 -999
2007-04-13 13:50 51°29.51 3°6.715 -999 -999 -999 -999 -999
2007-04-13 13:51 51°29.363 3°6.443 -999 -999 -999 -999 -999
2007-04-13 13:52 51°29.215 3°6.172 -999 -999 -999 -999 -999
2007-04-13 13:53 51°29.066 3°5.903 -999 -999 -999 -999 -999
2007-04-13 13:54 51°28.891 3°5.676 -999 -999 -999 -999 -999
2007-04-13 13:55 51°28.719 3°5.441 -999 -999 -999 -999 -999
2007-04-13 13:56 51°28.547 3°5.205 -999 -999 -999 -999 -999
2007-04-13 13:57 51°28.375 3°4.968 -999 -999 -999 -999 -999
2007-04-13 13:58 51°28.203 3°4.728 -999 -999 -999 -999 -999
2007-04-13 13:59 51°28.032 3°4.49 -999 -999 -999 -999 -999
2007-04-13 14:00 51°27.86 3°4.249 -999 -999 -999 -999 -999
2007-04-13 14:01 51°27.685 3°4.009 -999 -999 -999 -999 -999
2007-04-13 14:02 51°27.508 3°3.776 -999 -999 -999 -999 -999
2007-04-13 14:03 51°27.333 3°3.543 -999 -999 -999 -999 -999
2007-04-13 14:04 51°27.157 3°3.311 -999 -999 -999 -999 -999
2007-04-13 14:05 51°26.983 3°3.073 -999 -999 -999 -999 -999
2007-04-13 14:06 51°26.809 3°2.837 -999 -999 -999 -999 -999
2007-04-13 14:07 51°26.635 3°2.6 -999 -999 -999 -999 -999
2007-04-13 14:08 51°26.462 3°2.365 -999 -999 -999 -999 -999
2007-04-13 14:09 51°26.289 3°2.126 -999 -999 -999 -999 -999
2007-04-13 14:10 51°26.115 3°1.888 -999 -999 -999 -999 -999
2007-04-13 14:11 51°25.941 3°1.649 -999 -999 -999 -999 -999
2007-04-13 14:12 51°25.768 3°1.403 -999 -999 -999 -999 -999
2007-04-13 14:13 51°25.591 3°1.169 -999 -999 -999 -999 -999
2007-04-13 14:14 51°25.378 3°1.091 -999 -999 -999 -999 -999
2007-04-13 14:15 51°25.163 3°1.138 -999 -999 -999 -999 -999
2007-04-13 14:16 51°24.946 3°1.182 -999 -999 -999 -999 -999
2007-04-13 14:17 51°24.727 3°1.219 -999 -999 -999 -999 -999
2007-04-13 14:18 51°24.505 3°1.25 -999 -999 -999 -999 -999
2007-04-13 14:19 51°24.283 3°1.274 -999 -999 -999 -999 -999
2007-04-13 14:20 51°24.057 3°1.279 -999 -999 -999 -999 -999
2007-04-13 14:21 51°23.831 3°1.277 -999 -999 -999 -999 -999
2007-04-13 14:22 51°23.606 3°1.276 -999 -999 -999 -999 -999
2007-04-13 14:23 51°23.39 3°1.165 -999 -999 -999 -999 -999
2007-04-13 14:24 51°23.198 3°0.955 -999 -999 -999 -999 -999
2007-04-13 14:25 51°23.021 3°0.709 -999 -999 -999 -999 -999
2007-04-13 14:26 51°22.857 3°0.439 -999 -999 -999 -999 -999
2007-04-13 14:27 51°22.689 3°0.177 -999 -999 -999 -999 -999
2007-04-13 14:28 51°22.518 2°59.918 -999 -999 -999 -999 -999
2007-04-13 14:29 51°22.346 2°59.662 -999 -999 -999 -999 -999
2007-04-13 14:30 51°22.183 2°59.391 -999 -999 -999 -999 -999
2007-04-13 14:31 51°22.02 2°59.119 -999 -999 -999 -999 -999
2007-04-13 14:32 51°21.857 2°58.847 -999 -999 -999 -999 -999
2007-04-13 14:33 51°21.693 2°58.577 -999 -999 -999 -999 -999
2007-04-13 14:34 51°21.528 2°58.305 -999 -999 -999 -999 -999
2007-04-13 14:35 51°21.363 2°58.032 -999 -999 -999 -999 -999
2007-04-13 14:36 51°21.198 2°57.758 -999 -999 -999 -999 -999
2007-04-13 14:37 51°21.036 2°57.482 -999 -999 -999 -999 -999
2007-04-13 14:38 51°20.873 2°57.205 -999 -999 -999 -999 -999
2007-04-13 14:39 51°20.712 2°56.928 -999 -999 -999 -999 -999
2007-04-13 14:40 51°20.55 2°56.649 -999 -999 -999 -999 -999
2007-04-13 14:41 51°20.388 2°56.372 -999 -999 -999 -999 -999
2007-04-13 14:42 51°20.226 2°56.094 -999 -999 -999 -999 -999
2007-04-13 14:43 51°20.061 2°55.815 -999 -999 -999 -999 -999
2007-04-13 14:44 51°19.897 2°55.534 -999 -999 -999 -999 -999
2007-04-13 14:45 51°19.733 2°55.253 -999 -999 -999 -999 -999
2007-04-13 14:46 51°19.568 2°54.973 -999 -999 -999 -999 -999
2007-04-13 14:47 51°19.402 2°54.693 -999 -999 -999 -999 -999
2007-04-13 14:48 51°19.236 2°54.411 -999 -999 -999 -999 -999
2007-04-13 14:49 51°19.07 2°54.13 -999 -999 -999 -999 -999
2007-04-13 14:50 51°18.904 2°53.852 -999 -999 -999 -999 -999
2007-04-13 14:51 51°18.739 2°53.57 -999 -999 -999 -999 -999
2007-04-13 14:52 51°18.573 2°53.287 -999 -999 -999 -999 -999
2007-04-13 14:53 51°18.406 2°53.006 -999 -999 -999 -999 -999
2007-04-13 14:54 51°18.239 2°52.724 -999 -999 -999 -999 -999
2007-04-13 14:55 51°18.053 2°52.484 -999 -999 -999 -999 -999
2007-04-13 14:56 51°17.837 2°52.335 -999 -999 -999 -999 -999
2007-04-13 14:57 51°17.605 2°52.296 -999 -999 -999 -999 -999
2007-04-13 14:58 51°17.375 2°52.331 -999 -999 -999 -999 -999
2007-04-13 14:59 51°17.145 2°52.373 -999 -999 -999 -999 -999
2007-04-13 15:00 51°16.918 2°52.42 -999 -999 -999 -999 -999
2007-04-13 15:01 51°16.7 2°52.532 -999 -999 -999 -999 -999
2007-04-13 15:02 51°16.483 2°52.66 -999 -999 -999 -999 -999
2007-04-13 15:03 51°16.268 2°52.782 -999 -999 -999 -999 -999
2007-04-13 15:04 51°16.056 2°52.903 -999 -999 -999 -999 -999
2007-04-13 15:05 51°15.847 2°53.033 -999 -999 -999 -999 -999
2007-04-13 15:06 51°15.649 2°53.195 -999 -999 -999 -999 -999
2007-04-13 15:07 51°15.476 2°53.404 -999 -999 -999 -999 -999
2007-04-13 15:08 51°15.311 2°53.615 -999 -999 -999 -999 -999
2007-04-13 15:09 51°15.145 2°53.835 -999 -999 -999 -999 -999
2007-04-13 15:10 51°14.986 2°54.072 -999 -999 -999 -999 -999
2007-04-13 15:11 51°14.82 2°54.298 -999 -999 -999 -999 -999
2007-04-13 15:12 51°14.657 2°54.532 -999 -999 -999 -999 -999
2007-04-13 15:13 51°14.508 2°54.786 -999 -999 -999 -999 -999
2007-04-13 15:14 51°14.371 2°55.054 -999 -999 -999 -999 -999
2007-04-13 15:15 51°14.228 2°55.311 -999 -999 -999 -999 -999
2007-04-13 15:16 51°14.061 2°55.463 -999 -999 -999 -999 -999
2007-04-13 15:17 51°13.929 2°55.56 -999 -999 -999 -999 -999
2007-04-13 15:18 51°13.805 2°55.653 -999 -999 -999 -999 -999
2007-04-13 15:19 51°13.725 2°55.757 -999 -999 -999 -999 -999
2007-04-13 15:20 51°13.67 2°55.866 -999 -999 -999 -999 -999
2007-04-13 15:21 51°13.63 2°55.965 -999 -999 -999 -999 -999